{"data":{"norad_id":65583,"epoch":"2026-05-25T02:50:52.738944Z","epoch_age_seconds":58601,"freshness":"FRESH","line1":"1 65583U 25203U   26145.11866596  .00000018  00000+0  56431-5 0  9991","line2":"2 65583  81.3050  32.1490 0006560 250.9717 109.0729 13.83616027 35501","mean_motion":13.83616027,"eccentricity":0.000656,"inclination_deg":81.305,"raan_deg":32.149,"arg_perigee_deg":250.9717,"mean_anomaly_deg":109.0729,"bstar":5.6431e-6,"rev_number":3550,"period_min":104.07511707726,"perigee_km":946.281113752,"apogee_km":955.89705837692,"semimajor_km":7329.2260860645,"source":"CELESTRAK","updated_at":"2026-05-25T13:38:25.172246Z"}}